User: anonymous   Login
Location: Eckley
(40.9930°N, 75.8630°W)
Time: 04:25:29
(UTC-04:00)
Language:

Cosmos 2221 Rocket - Orbit

View from above orbital plane
View from above orbital plane
View from above satellite
View from above satellite

Ground track
Ground track

The orbit data is extracted from the following two-line orbital elements,

1 22237U 92080B   15184.81932007  .00000175  00000-0  20962-4 0  9990
2 22237 082.5121 062.1890 0020457 025.4340 029.0082 14.78154428217903
Epoch (UTC): 03 July 2015 19:39:49
Eccentricity: 0.0020457
inclination: 82.5121°
perigee height: 621 km
apogee height: 649 km
right ascension of ascending node: 62.1890°
argument of perigee: 25.4340°
revolutions per day: 14.78154428
mean anomaly at epoch: 29.0082°
orbit number at epoch: 21790

The dashed part of the orbit path shows where the satellite is in the earth's shadow,  

DLR